FW6606 Weather Reports


time (UTC)temp
C
wind
direction
speed
KPH
gust
KPH
rain 1hr
cm
rain 24hr
cm
rain mn
cm
humidity
%
barometer
mb
20260504000058 22 0 0.0 0.0 0.00 0.00 0.00 52 1018.3
20260503234554 24 89 0.0 1.6 0.00 0.00 0.00 42 1018.2
20260503233053 25 0 0.0 3.2 0.00 0.00 0.00 38 1018.4
20260503231555 26 0 0.0 1.6 0.00 0.00 0.00 37 1018.5
20260503230054 26 127 0.0 1.6 0.00 0.00 0.00 36 1018.5
20260503224554 26 159 0.0 9.7 0.00 0.00 0.00 35 1018.5
20260503223052 26 223 0.0 8.0 0.00 0.00 0.00 37 1018.3
20260503221555 27 0 1.6 4.8 0.00 0.00 0.00 34 1018.4
20260503220053 27 0 0.0 6.4 0.00 0.00 0.00 35 1018.3
20260503214601 27 54 0.0 6.4 0.00 0.00 0.00 35 1018.4
20260503213052 27 103 1.6 6.4 0.00 0.00 0.00 35 1018.5
20260503211556 27 0 0.0 6.4 0.00 0.00 0.00 32 1018.6
20260503210052 28 87 0.0 6.4 0.00 0.00 0.00 32 1018.9
20260503204557 28 0 0.0 6.4 0.00 0.00 0.00 31 1019.2
20260503203053 28 117 0.0 4.8 0.00 0.00 0.00 34 1019.3
20260503201556 27 306 3.2 11.3 0.00 0.00 0.00 33 1019.4
20260503200050 27 255 1.6 8.0 0.00 0.00 0.00 33 1019.6
20260503194600 27 336 3.2 9.7 0.00 0.00 0.00 33 1019.9
20260503193110 27 90 1.6 8.0 0.00 0.00 0.00 34 1020.1
20260503191554 27 265 1.6 11.3 0.00 0.00 0.00 34 1020.5
20260503190106 27 60 0.0 4.8 0.00 0.00 0.00 33 1020.7
20260503184601 27 183 0.0 6.4 0.00 0.00 0.00 37 1021.1
20260503183104 27 0 0.0 8.0 0.00 0.00 0.00 34 1021.2
20260503181554 27 98 1.6 9.7 0.00 0.00 0.00 33 1021.4
20260503180100 27 290 1.6 9.7 0.00 0.00 0.00 34 1021.4
20260503174554 27 233 0.0 12.9 0.00 0.00 0.00 36 1021.4
20260503173113 26 219 4.8 9.7 0.00 0.00 0.00 35 1021.5
20260503171553 27 290 0.0 8.0 0.00 0.00 0.00 33 1021.7
20260503150111 23 113 0.0 6.4 0.00 0.00 0.00 49 1022.7
20260503140120 17 0 0.0 0.0 0.00 0.00 0.00 76 1022.3
20260503110104 7 0 0.0 0.0 0.00 0.05 0.00 98 1020.8
20260503100107 7 0 0.0 0.0 0.00 0.10 0.00 97 1020.8
20260503081556 8 0 0.0 0.0 0.00 1.12 0.00 92 1020.0
20260503071606 8 0 0.0 0.0 0.00 1.57 0.00 93 1019.6
20260503054551 9 0 0.0 0.0 0.00 2.08 0.00 93 1019.7
20260503053054 9 0 0.0 0.0 0.00 2.08 0.00 93 1019.6
20260503051557 10 0 0.0 0.0 0.00 2.08 0.00 93 1019.4
20260503050057 10 0 0.0 0.0 0.00 2.08 0.00 94 1019.3
20260503044558 10 0 0.0 0.0 0.00 2.11 2.08 94 1019.1
20260503043055 10 0 0.0 0.0 0.00 2.11 2.08 92 1019.2
20260503041556 10 0 0.0 0.0 0.00 2.11 2.08 92 1019.2
20260503040059 10 0 0.0 0.0 0.00 2.11 2.08 93 1019.1
20260503034600 11 0 0.0 0.0 0.00 2.39 2.08 92 1019.0
20260503033101 11 0 0.0 0.0 0.00 2.39 2.08 91 1018.9
20260503031558 11 0 0.0 0.0 0.00 2.39 2.08 89 1018.8
20260503030055 11 0 0.0 0.0 0.00 2.39 2.08 86 1018.6
20260503024602 11 0 0.0 0.0 0.00 3.07 2.08 84 1018.5
20260503023057 12 0 0.0 0.0 0.00 3.07 2.08 81 1018.3
20260503021558 13 0 0.0 0.0 0.00 3.07 2.08 81 1018.1
20260503020058 13 0 0.0 0.0 0.00 3.07 2.08 74 1017.9
20260503014621 15 0 0.0 0.0 0.00 3.38 2.08 71 1017.9
20260503013054 15 0 0.0 0.0 0.00 3.38 2.08 69 1017.6
20260503011616 15 0 0.0 0.0 0.00 3.38 2.08 67 1017.3
20260503010058 16 0 0.0 0.0 0.00 3.38 2.08 64 1017.1
20260503004600 17 0 0.0 0.0 0.00 3.61 2.08 63 1016.7
20260503003106 18 0 0.0 0.0 0.00 3.61 2.08 60 1016.4
20260503001554 19 20 0.0 6.4 0.00 3.61 2.08 52 1016.0